Location: Temple Hill
(37.3073°N, 88.6303°W)
Time: 17:41:20
(UTC+00:00)

Cosmos 2084 - Pass Details

Date: 23 November 2020
Orbit: 558 x 624 km, 62.8° (Epoch: 20 January)

Event Time Altitude Azimuth Distance (km) Brightness Sun altitude
Exits shadow 12:10:18 - 322° (NW) 2,477 6.1 -6.7°
Reaches altitude 10° 12:11:32 10° 320° (NW) 1,989 5.6 -6.5°
Maximum altitude 12:15:59 61° 240° (WSW) 706 3.7 -5.7°
Drops below altitude 10° 12:20:27 10° 160° (SSE) 1,985 6.8 -4.9°
Sets 12:22:44 0° 157° (SSE) 2,886 7.8 -4.4°
